This demonstration page uses our WeatherBlox Daily Observations layout. Learn more.

Left ArrowRight Arrow

Hourly Observations for February 27, 2016

Temp ( °F °C ) Dew Point ( °F °C ) Humidity (%) Winds ( mph kmh ) Pressure ( in mb ) Visibility ( mi km ) Precip ( " mm )
12:15 am 00:15 Clear 36 2 19 -7 52 52 SE 8 13 30.12 1020 10 16 0.00 0.00
12:35 am 00:35 Clear 37 3 19 -7 48 48 E 9 15 30.12 1020 10 16 0.00 0.00
12:55 am 00:55 Clear 39 4 19 -7 45 45 SSW 10 17 30.12 1020 10 16 0.00 0.00
1:15 am 01:15 Clear 37 3 19 -7 48 48 SSW 12 19 30.12 1020 10 16 0.00 0.00
1:35 am 01:35 Clear 37 3 19 -7 48 48 S 10 17 30.12 1020 10 16 0.00 0.00
1:55 am 01:55 Clear 37 3 19 -7 48 48 S 13 20 30.12 1020 10 16 0.00 0.00
2:15 am 02:15 Clear 37 3 19 -7 48 48 SSW 12 19 30.12 1020 10 16 0.00 0.00
2:35 am 02:35 Clear 36 2 19 -7 52 52 SSW 9 15 30.09 1019 10 16 0.00 0.00
2:55 am 02:55 Clear 36 2 19 -7 52 52 SSW 10 17 30.09 1019 10 16 0.00 0.00
3:15 am 03:15 Clear 36 2 21 -6 56 56 SW 12 19 30.09 1019 10 16 0.00 0.00
3:35 am 03:35 Clear 36 2 19 -7 52 52 SSW 9 15 30.06 1018 10 16 0.00 0.00
3:55 am 03:55 Clear 34 1 21 -6 60 60 SW 10 17 30.09 1019 10 16 0.00 0.00
4:15 am 04:15 Clear 32 0 19 -7 60 60 S 7 11 30.09 1019 10 16 0.00 0.00
4:35 am 04:35 Clear 36 2 21 -6 56 56 SSW 10 17 30.06 1018 10 16 0.00 0.00
4:55 am 04:55 Clear 34 1 19 -7 56 56 S 10 17 30.03 1017 10 16 0.00 0.00
5:15 am 05:15 Clear 36 2 21 -6 56 56 S 12 19 30.03 1017 10 16 0.00 0.00
5:35 am 05:35 Clear 34 1 21 -6 60 60 SW 9 15 30.03 1017 10 16 0.00 0.00
5:55 am 05:55 Clear 34 1 21 -6 60 60 SW 8 13 30.03 1017 10 16 0.00 0.00
6:15 am 06:15 Clear 36 2 21 -6 56 56 SSW 8 13 30.03 1017 10 16 0.00 0.00
6:35 am 06:35 Clear 36 2 21 -6 56 56 S 9 15 30.00 1016 10 16 0.00 0.00
6:55 am 06:55 Clear 36 2 19 -7 52 52 S 14 22 30.00 1016 10 16 0.00 0.00
7:15 am 07:15 Sunny 36 2 19 -7 52 52 SSW 15 24 30.00 1016 10 16 0.00 0.00
7:35 am 07:35 Sunny 36 2 19 -7 52 52 SSW 15 24 30.00 1016 10 16 0.00 0.00
7:55 am 07:55 Sunny 36 2 21 -6 56 56 SW 10 17 30.00 1016 10 16 0.00 0.00
8:15 am 08:15 Sunny 37 3 21 -6 52 52 WSW 9 15 30.00 1016 10 16 0.00 0.00
8:35 am 08:35 Sunny 39 4 21 -6 48 48 SSW 8 13 29.94 1014 10 16 0.00 0.00
8:55 am 08:55 Sunny 41 5 21 -6 45 45 SSW 10 17 29.94 1014 10 16 0.00 0.00
9:15 am 09:15 Sunny 45 7 23 -5 42 42 SSW 14 22 29.94 1014 10 16 0.00 0.00
9:35 am 09:35 Sunny 46 8 25 -4 43 43 SSW 16 26 29.91 1013 10 16 0.00 0.00
9:55 am 09:55 Sunny 48 9 25 -4 40 40 SSW 15 24 29.88 1012 10 16 0.00 0.00
10:15 am 10:15 Sunny 54 12 25 -4 33 33 SSW 20 31 29.85 1011 10 16 0.00 0.00
10:35 am 10:35 Sunny 55 13 25 -4 31 31 SW 16 26 29.85 1011 10 16 0.00 0.00
10:55 am 10:55 Sunny 57 14 25 -4 29 29 S 16 26 29.85 1011 10 16 0.00 0.00
11:15 am 11:15 Sunny 59 15 25 -4 27 27 SSW 16 26 29.83 1010 10 16 0.00 0.00
11:55 am 11:55 Sunny 63 17 27 -3 25 25 S 15 24 29.83 1010 10 16 0.00 0.00
12:15 pm 12:15 Sunny 63 17 27 -3 25 25 S 15 24 29.80 1009 10 16 0.00 0.00
12:35 pm 12:35 Sunny 64 18 27 -3 24 24 SE 15 24 29.77 1008 10 16 0.00 0.00
12:55 pm 12:55 Sunny 64 18 27 -3 24 24 S 15 24 29.74 1007 10 16 0.00 0.00
1:15 pm 13:15 Sunny 66 19 27 -3 22 22 S 13 20 29.74 1007 10 16 0.00 0.00
1:35 pm 13:35 Sunny 68 20 27 -3 21 21 S 16 26 29.71 1006 10 16 0.00 0.00
1:55 pm 13:55 Sunny 70 21 27 -3 20 20 SSE 14 22 29.71 1006 10 16 0.00 0.00
2:15 pm 14:15 Sunny 70 21 27 -3 20 20 S 18 30 29.65 1004 10 16 0.00 0.00
2:35 pm 14:35 Sunny 72 22 25 -4 17 17 NE 16 26 29.65 1004 10 16 0.00 0.00
2:55 pm 14:55 Sunny 72 22 25 -4 17 17 SSE 15 24 29.65 1004 10 16 0.00 0.00
3:15 pm 15:15 Sunny 72 22 25 -4 17 17 S 17 28 29.62 1003 10 16 0.00 0.00
3:35 pm 15:35 Sunny 73 23 25 -4 16 16 S 22 35 29.62 1003 10 16 0.00 0.00
3:55 pm 15:55 Sunny 73 23 27 -3 17 17 S 18 30 29.59 1002 10 16 0.00 0.00
4:15 pm 16:15 Sunny 73 23 25 -4 16 16 S 18 30 29.59 1002 10 16 0.00 0.00
4:35 pm 16:35 Sunny 72 22 27 -3 19 19 SE 15 24 29.59 1002 10 16 0.00 0.00
4:55 pm 16:55 Sunny 72 22 27 -3 19 19 SE 18 30 29.59 1002 10 16 0.00 0.00
5:15 pm 17:15 Sunny 72 22 27 -3 19 19 SSE 14 22 29.59 1002 10 16 0.00 0.00
5:35 pm 17:35 Sunny 70 21 27 -3 20 20 E 13 20 29.56 1001 10 16 0.00 0.00
5:55 pm 17:55 Sunny 70 21 27 -3 20 20 ESE 12 19 29.56 1001 10 16 0.00 0.00
6:15 pm 18:15 Sunny 64 18 27 -3 24 24 ENE 8 13 29.59 1002 10 16 0.00 0.00
6:35 pm 18:35 Clear 63 17 28 -2 27 27 SE 9 15 29.59 1002 10 16 0.00 0.00
6:55 pm 18:55 Clear 57 14 27 -3 31 31 S 8 13 29.62 1003 10 16 0.00 0.00
7:15 pm 19:15 Clear 55 13 27 -3 33 33 S 8 13 29.62 1003 10 16 0.00 0.00
7:35 pm 19:35 Clear 55 13 28 -2 36 36 NE 7 11 29.62 1003 10 16 0.00 0.00
7:55 pm 19:55 Clear 55 13 28 -2 36 36 ENE 8 13 29.59 1002 10 16 0.00 0.00
8:15 pm 20:15 Clear 54 12 28 -2 38 38 E 10 17 29.59 1002 10 16 0.00 0.00
8:35 pm 20:35 Clear 55 13 28 -2 36 36 S 12 19 29.59 1002 10 16 0.00 0.00
8:55 pm 20:55 Clear 55 13 28 -2 36 36 ENE 10 17 29.59 1002 10 16 0.00 0.00
9:15 pm 21:15 Clear 55 13 28 -2 36 36 ENE 10 17 29.59 1002 10 16 0.00 0.00
9:35 pm 21:35 Clear 54 12 28 -2 38 38 E 13 20 29.56 1001 10 16 0.00 0.00
9:55 pm 21:55 Clear 55 13 28 -2 36 36 NNE 10 17 29.56 1001 10 16 0.00 0.00
10:15 pm 22:15 Clear 55 13 28 -2 36 36 undefined N/A 29.56 1001 10 16 0.00 0.00
10:35 pm 22:35 Clear 55 13 28 -2 36 36 NE 14 22 29.59 1002 10 16 0.00 0.00
10:55 pm 22:55 Clear 55 13 28 -2 36 36 E 13 20 29.56 1001 10 16 0.00 0.00
11:15 pm 23:15 Clear 54 12 28 -2 38 38 NW 15 24 29.59 1002 10 16 0.00 0.00
11:35 pm 23:35 Clear 55 13 28 -2 36 36 WSW 7 11 29.59 1002 10 16 0.00 0.00
11:55 pm 23:55 Clear 48 9 28 -2 46 46 S 13 20 29.62 1003 10 16 0.00 0.00

Powered by AerisWeather